When you browse on this site, cookies collect data to enhance your experience and personalize the content and advertising you see.
Visit our Privacy Policy to learn more. By continuing to use the site, you agree to this use of cookies and data.
  • In Latvia
  • List of Countries
  • For 7 days
  • Water Temperature
  • Satellite Maps
  • Weather Map
  • Weather Widgets
  • user-avatar
    Login

    Hourly Weather Peredovoy

    Today, 24 June, Monday

    Time Temperature Precipitation Wind Pressure Humidity
    00:00 +26°C° 0 mm 1 mps 747 mmHg 58%
    01:00 +25°C° 0 mm 1 mps 747 mmHg 60%
    02:00 +25°C° 0 mm 1 mps 747 mmHg 62%
    03:00 +23°C° 0 mm 1 mps 747 mmHg 61%
    04:00 +24°C° 0 mm 1 mps 747 mmHg 62%
    05:00 +23°C° 0 mm 0 mps 747 mmHg 63%
    06:00 +24°C° 0 mm 0 mps 747 mmHg 63%
    07:00 +27°C° 0 mm 1 mps 747 mmHg 61%
    08:00 +28°C° 0 mm 1 mps 747 mmHg 58%
    09:00 +29°C° 0 mm 1 mps 748 mmHg 56%
    10:00 +30°C° 0 mm 1 mps 747 mmHg 53%
    11:00 +31°C° 0 mm 1 mps 747 mmHg 50%
    12:00 +32°C° 0 mm 1 mps 747 mmHg 47%
    13:00 +32°C° 0 mm 1 mps 747 mmHg 44%
    14:00 +33°C° 0 mm 1 mps 747 mmHg 40%
    15:00 +34°C° 0 mm 1 mps 747 mmHg 36%
    16:00 +31°C° 0.1 mm 3 mps 747 mmHg 48%
    17:00 +29°C° 0.1 mm 5 mps 747 mmHg 60%
    18:00 +26°C° 0.1 mm 7 mps 747 mmHg 72%
    19:00 +24°C° 0.1 mm 6 mps 747 mmHg 78%
    20:00 +22°C° 0.1 mm 4 mps 748 mmHg 84%
    21:00 +21°C° 0.1 mm 3 mps 748 mmHg 90%
    22:00 +20°C° 0.1 mm 3 mps 748 mmHg 91%
    23:00 +20°C° 0.1 mm 3 mps 748 mmHg 92%

    Tomorrow, 25 June, Tuesday

    Time Temperature Precipitation Wind Pressure Humidity
    00:00 +19°C° 0.1 mm 3 mps 748 mmHg 92%
    01:00 +19°C° 0 mm 4 mps 748 mmHg 93%
    02:00 +19°C° 0 mm 4 mps 748 mmHg 93%
    03:00 +19°C° 0 mm 4 mps 749 mmHg 94%
    04:00 +19°C° 0 mm 5 mps 749 mmHg 89%
    05:00 +19°C° 0 mm 5 mps 749 mmHg 84%
    06:00 +17°C° 0 mm 6 mps 749 mmHg 80%
    07:00 +20°C° 0 mm 6 mps 749 mmHg 72%
    08:00 +21°C° 0 mm 6 mps 750 mmHg 64%
    09:00 +23°C° 0 mm 7 mps 750 mmHg 55%
    10:00 +23°C° 0 mm 6 mps 750 mmHg 53%
    11:00 +24°C° 0 mm 6 mps 750 mmHg 50%
    12:00 +26°C° 0 mm 6 mps 750 mmHg 48%
    13:00 +24°C° 0 mm 6 mps 751 mmHg 47%
    14:00 +24°C° 0 mm 6 mps 751 mmHg 46%
    15:00 +24°C° 0 mm 6 mps 751 mmHg 46%
    16:00 +24°C° 0 mm 6 mps 751 mmHg 49%
    17:00 +23°C° 0 mm 5 mps 751 mmHg 53%
    18:00 +22°C° 0 mm 5 mps 750 mmHg 56%
    19:00 +21°C° 0 mm 5 mps 751 mmHg 61%
    20:00 +19°C° 0 mm 4 mps 751 mmHg 65%
    21:00 +17°C° 0 mm 4 mps 752 mmHg 69%
    22:00 +16°C° 0 mm 3 mps 752 mmHg 71%
    23:00 +14°C° 0 mm 3 mps 752 mmHg 72%

    Day after tomorrow, 26 June, Wednesday

    Time Temperature Precipitation Wind Pressure Humidity
    00:00 +14°C° 0 mm 3 mps 752 mmHg 73%
    01:00 +13°C° 0 mm 3 mps 752 mmHg 75%
    02:00 +13°C° 0 mm 3 mps 752 mmHg 77%
    03:00 +12°C° 0 mm 3 mps 752 mmHg 79%
    04:00 +13°C° 0 mm 3 mps 752 mmHg 77%
    05:00 +13°C° 0 mm 3 mps 752 mmHg 75%
    06:00 +14°C° 0 mm 3 mps 752 mmHg 73%
    07:00 +17°C° 0 mm 3 mps 752 mmHg 66%
    08:00 +18°C° 0 mm 3 mps 752 mmHg 59%
    09:00 +20°C° 0 mm 4 mps 753 mmHg 53%
    10:00 +21°C° 0 mm 4 mps 752 mmHg 50%
    11:00 +21°C° 0 mm 4 mps 752 mmHg 47%
    12:00 +22°C° 0 mm 4 mps 752 mmHg 44%
    13:00 +22°C° 0 mm 4 mps 752 mmHg 45%
    14:00 +22°C° 0 mm 3 mps 751 mmHg 47%
    15:00 +22°C° 0 mm 3 mps 751 mmHg 48%
    16:00 +21°C° 0 mm 3 mps 751 mmHg 50%
    17:00 +21°C° 0 mm 3 mps 750 mmHg 53%
    18:00 +21°C° 0 mm 2 mps 750 mmHg 55%
    19:00 +20°C° 0 mm 2 mps 750 mmHg 57%
    20:00 +20°C° 0 mm 1 mps 749 mmHg 60%
    21:00 +18°C° 0 mm 1 mps 749 mmHg 62%
    22:00 +18°C° 0 mm 1 mps 749 mmHg 66%
    23:00 +16°C° 0 mm 1 mps 748 mmHg 70%

    27 June, Thursday

    Time Temperature Precipitation Wind Pressure Humidity
    00:00 +15°C° 0 mm 1 mps 748 mmHg 74%
    01:00 +15°C° 0 mm 1 mps 748 mmHg 73%
    02:00 +15°C° 0 mm 2 mps 747 mmHg 71%
    03:00 +14°C° 0 mm 3 mps 747 mmHg 70%
    04:00 +16°C° 0 mm 3 mps 747 mmHg 72%
    05:00 +16°C° 0 mm 3 mps 746 mmHg 74%
    06:00 +15°C° 0 mm 4 mps 746 mmHg 75%
    07:00 +17°C° 0.2 mm 4 mps 746 mmHg 74%
    08:00 +18°C° 0.2 mm 3 mps 746 mmHg 72%
    09:00 +19°C° 0.2 mm 3 mps 745 mmHg 70%
    10:00 +20°C° 0.1 mm 3 mps 745 mmHg 64%
    11:00 +21°C° 0.1 mm 4 mps 745 mmHg 58%
    12:00 +22°C° 0.1 mm 4 mps 744 mmHg 52%
    13:00 +22°C° 0 mm 4 mps 744 mmHg 51%
    14:00 +22°C° 0 mm 3 mps 744 mmHg 51%
    15:00 +22°C° 0 mm 3 mps 743 mmHg 50%
    16:00 +22°C° 0 mm 3 mps 743 mmHg 52%
    17:00 +23°C° 0 mm 2 mps 742 mmHg 54%
    18:00 +23°C° 0 mm 2 mps 742 mmHg 56%
    19:00 +20°C° 0 mm 2 mps 742 mmHg 58%
    20:00 +19°C° 0 mm 2 mps 741 mmHg 60%
    21:00 +18°C° 0 mm 2 mps 741 mmHg 62%
    22:00 +18°C° 0.1 mm 2 mps 740 mmHg 65%
    23:00 +18°C° 0.1 mm 3 mps 740 mmHg 68%

    28 June, Friday

    Time Temperature Precipitation Wind Pressure Humidity
    00:00 +17°C° 0.1 mm 3 mps 739 mmHg 72%
    01:00 +17°C° 1.5 mm 4 mps 739 mmHg 79%
    02:00 +15°C° 1.5 mm 4 mps 738 mmHg 86%
    03:00 +15°C° 1.5 mm 4 mps 737 mmHg 94%
    04:00 +17°C° 0.1 mm 4 mps 737 mmHg 92%
    05:00 +16°C° 0.1 mm 5 mps 736 mmHg 90%
    06:00 +17°C° 0.1 mm 5 mps 736 mmHg 88%
    07:00 +17°C° 0.2 mm 5 mps 735 mmHg 86%
    08:00 +19°C° 0.2 mm 5 mps 735 mmHg 83%
    09:00 +19°C° 0.2 mm 5 mps 734 mmHg 80%
    10:00 +21°C° 0 mm 7 mps 734 mmHg 70%
    11:00 +23°C° 0 mm 8 mps 734 mmHg 60%
    12:00 +26°C° 0 mm 9 mps 733 mmHg 50%
    13:00 +24°C° 0 mm 8 mps 733 mmHg 56%
    14:00 +23°C° 0 mm 7 mps 733 mmHg 61%
    15:00 +22°C° 0 mm 6 mps 732 mmHg 66%
    16:00 +22°C° 0.6 mm 6 mps 732 mmHg 71%
    17:00 +22°C° 0.6 mm 5 mps 732 mmHg 76%
    18:00 +22°C° 0.6 mm 5 mps 732 mmHg 81%
    19:00 +20°C° 0.6 mm 4 mps 732 mmHg 84%
    20:00 +19°C° 0.6 mm 4 mps 732 mmHg 88%
    21:00 +17°C° 0.6 mm 3 mps 732 mmHg 92%
    22:00 +16°C° 0 mm 3 mps 732 mmHg 92%
    23:00 +14°C° 0 mm 3 mps 732 mmHg 92%

    29 June, Saturday

    Time Temperature Precipitation Wind Pressure Humidity
    00:00 +12°C° 0 mm 3 mps 732 mmHg 92%
    01:00 +12°C° 0 mm 3 mps 732 mmHg 93%
    02:00 +12°C° 0 mm 2 mps 732 mmHg 93%
    03:00 +10°C° 0 mm 2 mps 732 mmHg 93%
    04:00 +11°C° 0 mm 3 mps 732 mmHg 92%
    05:00 +12°C° 0 mm 3 mps 732 mmHg 91%
    06:00 +13°C° 0 mm 4 mps 732 mmHg 90%
    07:00 +14°C° 0.1 mm 4 mps 732 mmHg 84%
    08:00 +15°C° 0.1 mm 4 mps 732 mmHg 78%
    09:00 +17°C° 0.1 mm 5 mps 732 mmHg 72%
    10:00 +17°C° 0.6 mm 5 mps 732 mmHg 69%
    11:00 +19°C° 0.6 mm 6 mps 732 mmHg 66%
    12:00 +18°C° 0.6 mm 7 mps 732 mmHg 63%
    13:00 +18°C° 0.8 mm 7 mps 732 mmHg 65%
    14:00 +17°C° 0.8 mm 7 mps 732 mmHg 68%
    15:00 +17°C° 0.8 mm 7 mps 732 mmHg 70%
    16:00 +16°C° 0.4 mm 7 mps 732 mmHg 71%
    17:00 +16°C° 0.4 mm 7 mps 732 mmHg 73%
    18:00 +15°C° 0.4 mm 6 mps 732 mmHg 74%
    19:00 +14°C° 0 mm 6 mps 733 mmHg 78%
    20:00 +12°C° 0 mm 5 mps 733 mmHg 83%
    21:00 +11°C° 0 mm 4 mps 734 mmHg 88%
    22:00 +10°C° 0 mm 4 mps 734 mmHg 88%
    23:00 +8°C° 0 mm 4 mps 734 mmHg 89%
    Show more